Regional Weather Roundup
Issued by NWS Newport/Morehead, NC

Home | Current Version | Previous Version | Text Only | Print | Product List | Glossary On
Versions: 1 2 3 4 5 6 7 8 9 10 11 12 13 14 15 16 17 18 19 20 21 22 23 24 25 26 27 28 29 30 31 32 33 34 35 36 37 38 39 40 41 42 43 44 45 46 47 48 49 50
000
ASUS42 KMHX 231125
RWRMHX
WEATHER ROUNDUP FOR EASTERN NORTH CAROLINA
NATIONAL WEATHER SERVICE NEWPORT/MOREHEAD CITY NC
700 AM EDT THU MAY 23 2019

NOTE: "FAIR" INDICATES FEW OR NO CLOUDS BELOW 12,000 FEET
WITH NO SIGNIFICANT WEATHER AND/OR OBSTRUCTIONS TO VISIBILITY

NCZ015>017-031-032-045>047-102-103-231200-
NORTH COAST

CITY           SKY/WX    TMP DP  RH WIND       PRES   REMARKS
EDENTON        FAIR      69  63  81 S5        30.28R HAZE
ELIZABETH CITY CLOUDY    63  58  83 S3        30.27R
KITTY HAWK     FAIR      65  58  80 MISG      30.27R
MANTEO         FAIR      64  59  83 CALM      30.28S

$$

NCZ045>047-081-094-103-104-231200-
CENTRAL COAST

CITY           SKY/WX    TMP DP  RH WIND       PRES   REMARKS
FRISCO         PTSUNNY   67  63  87 E3        30.28R

$$

NCZ095-097-098-100-101-231200-
SOUTHERN COAST

CITY           SKY/WX    TMP DP  RH WIND       PRES   REMARKS
BEAUFORT       FAIR      66  62  87 CALM      30.28R
CEDAR ISLAND   NOT AVBL
JACKSONVILLE   FAIR      66  59  78 N5        30.26R
PINEY ISLAND   FAIR      70  64  81 E5        30.27R
WILMINGTON     FAIR      64  62  93 CALM      30.26R


$$

NCZ011>013-027>030-043-044-078>080-089-090>093-098-231200-
COASTAL PLAIN

CITY           SKY/WX    TMP DP  RH WIND       PRES   REMARKS
AHOSKIE        FAIR      58  56  94 S3        30.27S
CLINTON        FAIR      64  62  93 CALM      30.29R
ELIZABETHTOWN  FAIR      63  60  91 CALM      30.28R
GOLDSBORO      FAIR      62  57  84 E3        30.26R
GREENVILLE     FAIR      63  55  77 CALM      30.27F
HAVELOCK       PTSUNNY   64  58  80 CALM      30.28R
KENANSVILLE    FAIR      59  57  94 CALM      30.29R
KINSTON        NOT AVBL
NEW BERN       PTSUNNY   61  60  97 CALM      30.28R
RICHLANDS      FAIR      60  58  92 CALM      30.28R
ROCKY MOUNT    PTSUNNY   61  56  83 CALM      30.28R
WASHINGTON     FAIR      61  54  79 CALM      30.28S
WHITEVILLE       N/A     63  62  96 CALM      30.27R

$$

AMZ130-135-150-152-154-156-158-170-250-252-270-ANZ085-086-088-633-658-670-231200-
MARINE OBSERVATIONS

STATION/POSITION TIME  TEMP    WIND        PRES    WAVE   SWELL
                       AIR SEA DIR/SP/G            HT/PER HT/PER
                 (UTC) (F)     (DEG/KT/KT) (MB)    (FT/S) (FT/S)
64 E VA BEACH    1050   68 63  180/  8/  8 1025.5    3/ 8   2/ 8
DUCK             1100   68 68  150/  8/  9 1024.6
2 E DUCK         1100      68                N/A     3/ 8
10 NE DUCK       1100      68                N/A     3/ 8
OREGON INLET     1054   68 70  110/  2/  3 1025.1
13E OREGON INLT  1046      67                N/A     3/ 7   3/ 7
HATTERAS CG      1100   70 72   70/  2/  2 1025.2
DIAMOND BUOY     NOT AVBL
CAPE LOOKOUT     1100   73     140/  4/  5 1025.4
BEAUFORT LAB     1100   69 77   10/  4/  4 1025.8
30 SE NEW RVR IN 1108   76 76  180/  4/  6 1024.0
30 SE NEW RVR IN 1100      76                N/A     2/ 7
27 SE WRIGHTSVLE 1108   76 76  160/  4/  8 1024.9
5 SE WRIGHTSVLE  1108   74 75  170/  6/  8 1024.6
27 SE WRIGHTSVL  1108   76 76  160/  4/  8 1024.9
FRYING PAN BUOY  1110   76     110/  4/  4 1025.0
225 S CAPE HAT   NOT AVBL
41 SE CHARLESTON 1110      76  120/  6/  8 1024.2

$$



USA.gov is the U.S. government's official web portal to all federal, state and local government web resources and services.